Home   Weather   Düsseldorf   Past weeks

Flag for Germany Past Weather in Düsseldorf, North Rhine-Westphalia, Germany — Yesterday and Last 2 Weeks

Now
59 °F

Partly sunny.


Feels Like: 56 °F
Forecast: 51 / 62 °F
Wind: 18 mph from Southwest

Location: Duesseldorf

Current Time: Oct 20, 2017 at 2:35:24 pm

Latest Report: Oct 20, 2017 at 1:50 pm


Visibility: N/A

Pressure: 29.83 "Hg

Humidity: 68%

Dew Point: 48 °F

Location of DüsseldorfLocation

Past Weather in Düsseldorf — Graph

°F

Düsseldorf Temperature Yesterday

Maximum temperature yesterday: 70 °F (at 2:20 pm)
Minimum temperature yesterday: 55 °F (at 2:20 am)
Average temperature yesterday: 62 °F

High & Low Weather Summary for the Past Weeks

 TemperatureHumidityPressure
High75 °F (Oct 16, 2:20 pm)100% (Oct 8, 2:20 am)30.33 "Hg (Oct 8, 2:20 am)
Low45 °F (Oct 9, 3:20 am)53% (Oct 15, 3:20 pm)29.74 "Hg (Oct 20, 8:20 am)
Average58 °F80%30.07 "Hg
* Reported Oct 5 1:20 pm — Oct 20 1:20 pm, Düsseldorf. Weather by CustomWeather, © 2017

Note: Actual official high and low records may vary slightly from our data, if they occured in-between our weather recording intervals... More about our weather records

Advertising

Düsseldorf Weather History for the Previous 24 Hours

Scroll right to see more
 ConditionsComfort  
Time TempWeatherWind HumidityBarometerVisibility
1:20 pm
Fri, Oct 20
61 °FScattered clouds.22 mph59%29.83 "HgN/A
12:50 pm61 °FScattered clouds.25 mph63%29.83 "HgN/A
12:20 pm59 °FScattered clouds.21 mph72%29.80 "HgN/A
11:50 am59 °FScattered clouds.18 mph77%29.80 "HgN/A
11:20 am59 °FScattered showers. Passing clouds.15 mph82%29.80 "HgN/A
10:50 am57 °FSprinkles. Partly sunny.16 mph94%29.80 "HgN/A
10:20 am59 °FLots of rain. Partly sunny.12 mph82%29.77 "Hg2 mi
9:50 am59 °FSprinkles. Partly sunny.14 mph88%29.74 "HgN/A
9:20 am59 °FSprinkles. Broken clouds.15 mph88%29.74 "HgN/A
8:50 am57 °FSunny.15 mph88%29.74 "Hg10 mi
8:20 am57 °FBroken clouds.14 mph88%29.74 "HgN/A
7:50 am57 °FPartly cloudy.14 mph88%29.77 "HgN/A
7:20 am57 °FRain. Mostly cloudy.14 mph82%29.77 "Hg6 mi
6:50 am59 °FRain. Mostly cloudy.15 mph77%29.77 "HgN/A
6:20 am63 °FLight rain. Partly cloudy.14 mph64%29.77 "HgN/A
5:50 am61 °FClear.13 mph68%29.77 "Hg10 mi
5:20 am61 °FLight rain. Clear.12 mph68%29.77 "HgN/A
4:50 am61 °FLight rain. Clear.9 mph68%29.77 "HgN/A
4:20 am61 °FLight rain. Passing clouds.12 mph72%29.77 "HgN/A
3:50 am61 °FLight rain. Passing clouds.8 mph72%29.80 "HgN/A
3:20 am61 °FLight rain. Passing clouds.8 mph72%29.80 "HgN/A
2:50 am63 °FLight rain. Clear.9 mph68%29.83 "HgN/A
2:20 am61 °FLight rain. Clear.7 mph77%29.80 "HgN/A
1:50 am63 °FLight rain. Clear.10 mph68%29.80 "HgN/A
1:20 am63 °FClear.13 mph68%29.80 "Hg10 mi
12:50 am63 °FClear.15 mph73%29.77 "Hg10 mi
12:20 am63 °FClear.13 mph73%29.80 "Hg10 mi
11:50 pm
Thu, Oct 19
63 °FClear.13 mph73%29.80 "Hg10 mi
11:20 pm63 °FClear.14 mph73%29.80 "Hg10 mi
10:50 pm63 °FClear.13 mph73%29.80 "Hg10 mi
10:20 pm63 °FClear.12 mph73%29.80 "Hg10 mi
9:50 pm64 °FClear.12 mph68%29.80 "Hg10 mi
9:20 pm64 °FClear.12 mph68%29.80 "Hg10 mi
8:50 pm64 °FClear.12 mph68%29.80 "Hg10 mi
8:20 pm64 °FClear.9 mph73%29.83 "Hg10 mi
7:20 pm66 °FClear.12 mph68%29.80 "Hg10 mi
6:50 pm68 °FClear.14 mph64%29.80 "Hg10 mi
6:20 pm68 °FSunny.12 mph64%29.80 "Hg10 mi
5:50 pm68 °FSunny.12 mph64%29.80 "Hg10 mi
5:20 pm68 °FSunny.13 mph64%29.80 "Hg10 mi
4:50 pm70 °FSunny.14 mph57%29.80 "Hg10 mi
4:20 pm70 °FSunny.12 mph57%29.80 "Hg10 mi
3:50 pm70 °FSunny.10 mph57%29.80 "Hg10 mi
3:20 pm70 °FPassing clouds.10 mph57%29.80 "HgN/A
2:50 pm70 °FPassing clouds.10 mph57%29.83 "HgN/A
2:20 pm70 °FSunny.10 mph57%29.83 "Hg10 mi
Weather by CustomWeather, © 2017

See weather overview